Location: Hermaringen
(48.5952°N, 10.2585°E)
Time: 04:50:13
(UTC+00:00)

Transit 2A - Pass Details

Date: 16 February 2026
Orbit: 590 x 954 km, 66.7° (Epoch: 14 March)

Event Time Altitude Azimuth Distance (km) Brightness Sun altitude
Rises 21:24:13 0° 321° (NW) 3,582 10.2 -44.8°
Reaches altitude 10° 21:26:55 10° 316° (NW) 2,600 9.3 -45.1°
Enters shadow 21:28:08 16° 312° (NW) 2,174 8.8 -45.2°
